Nuiqsut, AK

1:12 AM AKDT on May 30, 2017 (GMT -0800)
Nuiqsut

Weather History for PAQT - January, 2014

Change the Weather History Date:

Monday, January 20, 2014

  Actual Average (PAKU) Record (PAKU)
Temperature  
Mean Temperature -11 °F -  
Max Temperature -5 °F -9 °F 35 °F (2008)
Min Temperature -17 °F -18 °F -47 °F (1993)
Degree Days  
Heating Degree Days 76    
Moisture  
Dew Point -14 °F    
Average Humidity 87    
Maximum Humidity 91    
Minimum Humidity 82    
Precipitation  
Precipitation 0.00 in - - ()
Sea Level Pressure  
Sea Level Pressure 29.98 in    
Wind  
Wind Speed 18 mph (ENE)    
Max Wind Speed 26 mph    
Max Gust Speed -    
Visibility 6 miles    
Events      
Averages and records for this station are not official NWS values.
T = Trace of Precipitation, MM = Missing Value Source: NWS Daily Summary

Daily Weather History Graph

Daily Weather History Graph

Search for Another Location

Airport or City:

Trip Planner

Search our weather history database for the weather conditions in past years. The results will help you decide how hot, cold, wet, or windy it might be!

Date:

Astronomy

Jan. 20, 2014 Rise Set
Actual Time 12:14 PM AKST 2:16 PM AKST
Civil Twilight 10:07 AM AKST 4:23 PM AKST
Nautical Twilight 8:39 AM AKST 5:52 PM AKST
Astronomical Twilight 7:24 AM AKST 7:06 PM AKST
Moon 11:08 PM AKST (1/20) 10:28 AM AKST (1/20)
Length of Visible Light 6h 16m
Length of Day
2h 02m
Waning Gibbous, 81% of the Moon is Illuminated
Jan 20
Waning Gibbous
Jan 23
Last Quarter
Jan 30
New
Feb 6
First Quarter
Feb 14
Full

Hourly Weather History & Observations

Time (AKST) Temp. Windchill Dew Point Humidity Pressure Visibility Wind Dir Wind Speed Gust Speed Precip Events Conditions
12:53 AM -16.1 °F -43.4 °F -18.9 °F 87% 30.05 in 4.0 mi East 20.7 mph - N/A   Clear
1:53 AM -16.1 °F -41.4 °F -18.9 °F 87% 30.06 in 7.0 mi East 17.3 mph - N/A   Clear
3:53 AM -16.1 °F -39.1 °F -20.0 °F 82% 30.04 in 8.0 mi East 13.8 mph - N/A   Clear
4:53 AM -17.0 °F -38.4 °F -20.0 °F 86% 30.04 in 8.0 mi East 11.5 mph - N/A   Scattered Clouds
5:53 AM -17.0 °F -41.1 °F -20.0 °F 86% 30.04 in 8.0 mi ENE 15.0 mph - N/A   Clear
6:53 AM -17.0 °F -40.2 °F -20.0 °F 86% 30.03 in 8.0 mi East 13.8 mph - N/A   Clear
7:53 AM -17.0 °F -38.4 °F -20.9 °F 82% 30.04 in 9.0 mi ENE 11.5 mph - N/A   Clear
8:53 AM -17.0 °F -40.2 °F -20.0 °F 86% 30.03 in 8.0 mi East 13.8 mph - N/A   Clear
9:53 AM -15.0 °F -36.8 °F -18.9 °F 82% 30.03 in 9.0 mi ENE 12.7 mph - N/A   Clear
10:53 AM -15.0 °F -35.9 °F -18.9 °F 82% 30.03 in 9.0 mi ENE 11.5 mph - N/A   Clear
11:53 AM -15.0 °F -39.3 °F -18.9 °F 82% 30.04 in 6.0 mi ENE 16.1 mph - N/A   Clear
12:53 PM -15.0 °F -37.7 °F -18.9 °F 82% 30.04 in 8.0 mi ENE 13.8 mph - N/A   Clear
1:53 PM -13.0 °F -36.0 °F -17.0 °F 82% 30.02 in 8.0 mi East 15.0 mph - N/A   Clear
2:53 PM -9.9 °F -30.5 °F -13.0 °F 86% 30.02 in 7.0 mi ENE 12.7 mph - N/A   Overcast
3:53 PM -9.0 °F -32.4 °F -11.9 °F 87% 30.01 in 9.0 mi ENE 17.3 mph - N/A   Overcast
4:53 PM -8.0 °F -28.8 °F -11.0 °F 86% 30.00 in 8.0 mi ENE 13.8 mph - N/A   Overcast
5:53 PM -8.0 °F -31.0 °F -11.0 °F 86% 29.99 in 9.0 mi ENE 17.3 mph - N/A   Scattered Clouds
6:53 PM -8.0 °F -31.6 °F -11.0 °F 86% 29.96 in 8.0 mi ENE 18.4 mph - N/A   Clear
7:53 PM -7.1 °F -32.1 °F -9.9 °F 87% 29.93 in 5.0 mi ENE 21.9 mph - N/A   Clear
8:40 PM -7.1 °F -33.7 °F -9.0 °F 91% 29.90 in 2.5 mi ENE 25.3 mph - N/A   Clear
8:53 PM -7.1 °F -33.2 °F -9.0 °F 91% 29.90 in 1.8 mi ENE 24.2 mph - N/A   Clear
9:23 PM -6.0 °F -31.7 °F -8.0 °F 91% 29.89 in 2.0 mi East 24.2 mph - N/A   Clear
9:37 PM -6.0 °F -31.2 °F -8.0 °F 91% 29.89 in 2.0 mi ENE 23.0 mph - N/A   Scattered Clouds
9:42 PM -6.0 °F -31.7 °F -8.0 °F 91% 29.89 in 1.8 mi ENE 24.2 mph - N/A   Mostly Cloudy
9:53 PM -6.0 °F -31.2 °F -8.0 °F 91% 29.89 in 1.5 mi ENE 23.0 mph - N/A   Mostly Cloudy
10:18 PM -5.1 °F -30.5 °F -8.0 °F 87% 29.89 in 1.2 mi East 24.2 mph - N/A   Partly Cloudy
10:53 PM -6.0 °F -32.7 °F -8.0 °F 91% 29.88 in 2.0 mi East 26.5 mph - N/A   Clear
11:01 PM -6.0 °F -32.7 °F -8.0 °F 91% 29.87 in 1.8 mi East 26.5 mph - N/A   Clear
11:53 PM -6.0 °F -31.7 °F -8.0 °F 91% 29.88 in 2.5 mi East 24.2 mph - N/A   Clear